{"data":{"norad_id":36415,"epoch":"2026-05-25T03:24:08.172864Z","epoch_age_seconds":66802,"freshness":"FRESH","line1":"1 36415U 10009C   26145.14176126  .00000067  00000+0  11133-3 0  9999","line2":"2 36415  63.3669  58.0052 0537125  21.0550 341.1702 13.45706360796803","mean_motion":13.4570636,"eccentricity":0.0537125,"inclination_deg":63.3669,"raan_deg":58.0052,"arg_perigee_deg":21.055,"mean_anomaly_deg":341.1702,"bstar":0.00011133,"rev_number":79680,"period_min":107.00699965481,"perigee_km":687.06757246856,"apogee_km":1489.1278355466,"semimajor_km":7466.2347040076,"source":"CELESTRAK","updated_at":"2026-05-25T13:37:55.194179Z"}}